Eielson Air Force Base, AK

7:02 PM AKDT on July 24, 2016 (GMT -0800)
Eielson Air Force Base

Weather History for PAEI - October, 2012

Change the Weather History Date:

Monday, October 8, 2012

  Actual Average Record
Temperature  
Mean Temperature 36 °F -  
Max Temperature 39 °F 39 °F 62 °F (1969)
Min Temperature 33 °F 26 °F 10 °F (1998)
Degree Days  
Heating Degree Days 29    
Moisture  
Dew Point 37 °F    
Average Humidity 96    
Maximum Humidity 100    
Minimum Humidity 93    
Precipitation  
Precipitation 0.57 in - - ()
Sea Level Pressure  
Sea Level Pressure 30.22 in    
Wind  
Wind Speed 3 mph (NW)    
Max Wind Speed 7 mph    
Max Gust Speed -    
Visibility 7 miles    
Events Rain    
Averages and records for this station are not official NWS values.
T = Trace of Precipitation, MM = Missing Value Source: NWS Daily Summary

Daily Weather History Graph

Daily Weather History Graph

Search for Another Location

Airport or City:

Trip Planner

Search our weather history database for the weather conditions in past years. The results will help you decide how hot, cold, wet, or windy it might be!

Date:

Astronomy

Oct. 08, 2012 Rise Set
Actual Time 8:20 AM AKDT 6:49 PM AKDT
Civil Twilight 7:32 AM AKDT 7:37 PM AKDT
Nautical Twilight 6:35 AM AKDT 8:33 PM AKDT
Astronomical Twilight 5:36 AM AKDT 9:32 PM AKDT
Moon No Moon Rise 4:57 PM AKDT (10/8)
Length of Visible Light 12h 05m
Length of Day
10h 28m
Last Quarter, 45% of the Moon is Illuminated
Oct 8
Last Quarter
Oct 15
New
Oct 21
First Quarter
Oct 29
Full
Nov 6
Last Quarter

Hourly Weather History & Observations

Time (AKDT) Temp. Windchill Dew Point Humidity Pressure Visibility Wind Dir Wind Speed Gust Speed Precip Events Conditions
12:04 AM 39.2 °F 37.0 °F 39.2 °F 100% 30.20 in 6.0 mi North 3.5 mph - N/A Rain Light Rain
12:46 AM 39.2 °F 37.0 °F 39.2 °F 100% 30.20 in 8.0 mi North 3.5 mph - N/A Rain Light Rain
12:55 AM 39.7 °F 37.6 °F 39.0 °F 97% 30.20 in 10.0 mi NNW 3.5 mph - 0.02 in Rain Light Rain
1:03 AM 39.2 °F - 39.2 °F 100% 30.20 in 8.0 mi Calm Calm - N/A Rain Light Rain
1:55 AM 39.7 °F - 38.8 °F 97% 30.20 in 7.0 mi Calm Calm - 0.02 in Rain Light Rain
2:05 AM 39.2 °F - 39.2 °F 100% 30.20 in 9.0 mi Calm Calm - N/A Rain Light Rain
2:19 AM 39.2 °F - 39.2 °F 100% 30.19 in 8.0 mi Calm Calm - N/A Rain Light Rain
2:36 AM 39.2 °F - 39.2 °F 100% 30.19 in 8.0 mi Calm Calm - N/A Rain Light Rain
2:37 AM 39.2 °F - 39.2 °F 100% 30.18 in 7.0 mi Calm Calm - N/A Rain Light Rain
2:38 AM 39.2 °F - 39.2 °F 100% 30.18 in 7.0 mi Calm Calm - N/A Rain Light Rain
2:44 AM 39.2 °F - 39.2 °F 100% 30.18 in 7.0 mi Calm Calm - N/A Rain Light Rain
2:55 AM 39.4 °F - 38.7 °F 97% 30.19 in 7.0 mi Calm Calm - 0.03 in Rain Light Rain
2:59 AM 39.2 °F 37.0 °F 39.2 °F 100% 30.18 in 7.0 mi North 3.5 mph - N/A Rain Light Rain
3:01 AM 39.2 °F - 39.2 °F 100% 30.18 in 8.0 mi Calm Calm - N/A Rain Light Rain
3:07 AM 39.2 °F - 39.2 °F 100% 30.18 in 8.0 mi Calm Calm - N/A Rain Light Rain
3:08 AM 39.2 °F - 39.2 °F 100% 30.18 in 8.0 mi Calm Calm - N/A Rain Light Rain
3:18 AM 39.2 °F - 39.2 °F 100% 30.18 in 8.0 mi Calm Calm - N/A Rain Light Rain
3:55 AM 39.9 °F 36.7 °F 38.8 °F 96% 30.17 in 8.0 mi NNE 4.6 mph - 0.01 in Rain Light Rain
3:57 AM 39.2 °F 35.9 °F 39.2 °F 100% 30.17 in 8.0 mi NNE 4.6 mph - N/A Rain Light Rain
4:34 AM 39.2 °F 35.9 °F 39.2 °F 100% 30.16 in 9.0 mi North 4.6 mph - N/A Rain Light Rain
4:55 AM 39.9 °F 36.7 °F 38.7 °F 95% 30.15 in 9.0 mi North 4.6 mph - 0.03 in Rain Light Rain
5:26 AM 39.2 °F 35.9 °F 39.2 °F 100% 30.15 in 8.0 mi North 4.6 mph - N/A Rain Light Rain
5:55 AM 39.4 °F 36.1 °F 38.3 °F 96% 30.14 in 9.0 mi North 4.6 mph - 0.03 in Rain Light Rain
6:31 AM 39.2 °F 37.0 °F 37.4 °F 93% 30.14 in 7.0 mi North 3.5 mph - N/A Rain Light Rain
6:35 AM 39.2 °F 37.0 °F 37.4 °F 93% 30.13 in 7.0 mi North 3.5 mph - N/A Rain Light Rain
6:36 AM 39.2 °F 37.0 °F 37.4 °F 93% 30.13 in 7.0 mi NNE 3.5 mph - N/A Rain Light Rain
6:49 AM 39.2 °F 35.9 °F 37.4 °F 93% 30.13 in 9.0 mi North 4.6 mph - N/A Rain Light Rain
6:55 AM 39.2 °F 35.9 °F 38.1 °F 96% 30.13 in 10.0 mi North 4.6 mph - 0.05 in Rain Light Rain
7:55 AM 39.2 °F 35.0 °F 38.1 °F 96% 30.12 in 8.0 mi North 5.8 mph - 0.04 in Rain Light Rain
8:05 AM 39.2 °F 35.0 °F 37.4 °F 93% 30.12 in 8.0 mi North 5.8 mph - N/A Rain Light Rain
8:55 AM 38.8 °F 34.6 °F 37.9 °F 97% 30.13 in 8.0 mi NNW 5.8 mph - 0.04 in Rain Light Rain
9:55 AM 39.2 °F 35.0 °F 38.1 °F 96% 30.13 in 10.0 mi NNW 5.8 mph - 0.05 in Rain Light Rain
10:55 AM 38.8 °F 35.4 °F 37.8 °F 96% 30.15 in 10.0 mi Variable 4.6 mph - 0.04 in Rain Light Rain
11:36 AM 39.2 °F 35.9 °F 37.4 °F 93% 30.17 in 10.0 mi NW 4.6 mph - N/A Rain Light Rain
11:55 AM 38.7 °F 35.2 °F 37.8 °F 97% 30.17 in 10.0 mi West 4.6 mph - 0.03 in Rain Light Rain
12:25 PM 39.2 °F 35.9 °F 37.4 °F 93% 30.15 in 10.0 mi NW 4.6 mph - N/A Rain Light Rain
12:53 PM 39.2 °F 35.0 °F 37.4 °F 93% 30.15 in 10.0 mi WNW 5.8 mph - N/A Rain Light Rain
12:55 PM 38.5 °F 34.1 °F 36.9 °F 94% 30.18 in 10.0 mi NW 5.8 mph - 0.03 in Rain Light Rain
1:55 PM 38.1 °F 33.7 °F 36.9 °F 95% 30.20 in 10.0 mi NW 5.8 mph - 0.02 in Rain Light Rain
1:59 PM 37.4 °F 32.1 °F 37.4 °F 100% 30.20 in 10.0 mi NW 6.9 mph - N/A Rain Light Rain
2:55 PM 38.5 °F 34.1 °F 36.9 °F 94% 30.22 in 10.0 mi WNW 5.8 mph - 0.03 in Rain Light Rain
3:06 PM 39.2 °F 35.0 °F 37.4 °F 93% 30.22 in 10.0 mi West 5.8 mph - N/A Rain Light Rain
3:12 PM 39.2 °F 35.0 °F 37.4 °F 93% 30.23 in 10.0 mi NW 5.8 mph - N/A Rain Light Rain
3:55 PM 38.5 °F 33.4 °F 36.9 °F 94% 30.24 in 10.0 mi WNW 6.9 mph - 0.03 in Rain Light Rain
4:55 PM 37.9 °F 33.5 °F 36.1 °F 93% 30.25 in 10.0 mi NW 5.8 mph - 0.03 in Rain Light Rain
5:20 PM 37.4 °F 33.8 °F 35.6 °F 93% 30.25 in 10.0 mi Variable 4.6 mph - N/A Rain Light Rain
5:30 PM 37.4 °F 33.8 °F 35.6 °F 93% 30.26 in 10.0 mi WNW 4.6 mph - N/A Rain Light Rain
5:55 PM 37.8 °F 34.2 °F 36.0 °F 93% 30.26 in 10.0 mi NW 4.6 mph - 0.03 in Rain Light Rain
6:30 PM 37.4 °F 33.8 °F 35.6 °F 93% 30.27 in 10.0 mi WNW 4.6 mph - N/A Rain Light Rain
6:55 PM 37.4 °F 33.8 °F 35.8 °F 94% 30.27 in 10.0 mi WNW 4.6 mph - 0.01 in Rain Light Rain
7:55 PM 37.2 °F 32.6 °F 35.6 °F 94% 30.29 in 10.0 mi WNW 5.8 mph - 0.00 in   Mostly Cloudy
8:55 PM 36.3 °F 30.8 °F 35.1 °F 95% 30.29 in 10.0 mi West 6.9 mph - N/A   Mostly Cloudy
9:48 PM 35.6 °F 29.9 °F 33.8 °F 93% 30.31 in 10.0 mi West 6.9 mph - N/A   Overcast
9:55 PM 35.6 °F 30.7 °F 34.5 °F 96% 30.31 in 10.0 mi West 5.8 mph - N/A   Mostly Cloudy
10:19 PM 35.6 °F 30.7 °F 33.8 °F 93% 30.31 in 4.0 mi Variable 5.8 mph - N/A   Overcast
10:33 PM 33.8 °F 29.6 °F 33.8 °F 100% 30.32 in 2.5 mi WSW 4.6 mph - N/A   Overcast
10:36 PM 33.8 °F 29.6 °F 33.8 °F 100% 30.32 in 2.0 mi West 4.6 mph - N/A   Overcast
10:38 PM 33.8 °F 29.6 °F 33.8 °F 100% 30.32 in 2.0 mi West 4.6 mph - N/A   Overcast
10:39 PM 33.8 °F 29.6 °F 33.8 °F 100% 30.32 in 2.0 mi West 4.6 mph - N/A   Overcast
10:51 PM 33.8 °F 27.7 °F 33.8 °F 100% 30.32 in 2.5 mi West 6.9 mph - N/A   Overcast
10:55 PM 33.8 °F 28.6 °F 33.1 °F 97% 30.32 in 2.5 mi West 5.8 mph - N/A   Overcast
10:59 PM 33.8 °F 28.6 °F 33.8 °F 100% 30.32 in 2.0 mi West 5.8 mph - N/A   Overcast
11:07 PM 33.8 °F - 32.0 °F 93% 30.32 in 1.8 mi Calm Calm - N/A   Overcast
11:16 PM 33.8 °F - 32.0 °F 93% 30.32 in 1.2 mi Calm Calm - N/A   Overcast
11:36 PM 33.8 °F - 32.0 °F 93% 30.33 in 1.5 mi Calm Calm - N/A   Overcast
11:50 PM 33.8 °F - 32.0 °F 93% 30.33 in 1.8 mi Calm Calm - N/A   Overcast
11:51 PM 33.8 °F - 32.0 °F 93% 30.33 in 2.0 mi Calm Calm - N/A   Overcast
11:53 PM 33.8 °F - 32.0 °F 93% 30.33 in 2.5 mi Calm Calm - N/A   Overcast
11:55 PM 33.1 °F - 32.4 °F 97% 30.33 in 3.0 mi Calm Calm - N/A   Overcast
11:56 PM 33.8 °F - 32.0 °F 93% 30.33 in 3.0 mi Calm Calm - N/A   Overcast